COSMOS 1275 DEB, 12654

Orbit data source: Space-Track

COSMOS 1275 DEB, 12654 is space debris in LEO originally from a launch on Thu, 04 Jun 1981 UTC launched from the Plesetsk Missile And Space Complex (PKMTR). Debris objects in space refer to the collection of defunct objects orbiting the Earth. Examples of debris include non-operational satellites, rocket bodies, and fragments generated from explosions, collisions, or faulty payload assembly.

Loading next visibility...
Identifier
12654, 1981-053J
Orbit
LEO
Country
Flag of CISCIS
Related business
Manufacturer
Unknown
Mission
Spacecraft
Bus & Motor
Unknown
Mass
Unknown
Launch date (UTC)
1981-06-04 (45 years ago)
Launch vehicle
Unknown
Launch site
Plesetsk Missile And Space Complex (PKMTR)
Object type
Payload
Rocket body
Debris
Shape & HBR
Unknown shape, 0.2 m
Radar Cross Section
Medium (>0.1 m² and <1 m²)

Expand to show TLE details & history
Last TLE update: 18 hours ago

TLE from 18 hours ago
0 COSMOS 1275 DEB
1 12654U 81053J   26254.21403032  .00000551  00000-0  30530-3 0  9994
2 12654  82.9836 152.8846 0046066   3.4298 160.7233 14.09111211300217
Epoch: 2026-09-11T05:08Z
TLE epoch observation values (Epoch: 2026-09-11T05:08:12.219Z)
Latitude
15.53088°
Longitude
-96.35671°
Altitude
896.185 km
Speed
7.389 km/s
True Right ascension
22h 03m 44s
True Declination
15° 26' 39"
Sunlit
Object was in full shadow at epoch
Visualization orbit readout
Latitude
Unknown
Longitude
Unknown
Altitude
Unknown
Speed
Unknown
Apparent Right ascension
Unknown
Apparent Declination
Unknown
Sunlit
N/A
Visualization observer readout
Local Sidereal Time
15:22:15
Azimuth
Unknown
Elevation
Unknown
Doppler factor
Unknown
Orbital elements
Apogee altitude
892.856 km
Perigee altitude
826.174 km
Semi-major axis
7,237.652 km
Eccentricity
0.00461
Inclination
82.9836°
RAAN
152.8846°
Arg. of periapsis
3.4298°
True anomaly
160.89663°
Mean anomaly
160.7233°
Eccentric anomaly
160.81006°
Mean motion
3.5249 °/min
Orbital period
102.13 mins
BSTAR
0.0003053
Loading maneuver chart data...
Computing Atmospheric mass density...
Loading historical data...
Loading historical data...
Loading historical data...
Loading historical data...
Loading historical data...
Loading historical data...
Loading historical data...

Documentation

Showing up to 5 results
|